Abilene, TX

5:50 AM CDT on June 25, 2017 (GMT -0500)
Abilene Regional

Weather History for KABI - July, 2013

Change the Weather History Date:

Sunday, July 7, 2013

  Actual Average Record
Temperature  
Mean Temperature 86 °F 82 °F  
Max Temperature 97 °F 94 °F 106 °F (1998)
Min Temperature 74 °F 72 °F 59 °F (1905)
Degree Days  
Heating Degree Days 0 0  
Month to date heating degree days 0 0  
Since 1 June heating degree days 0 1  
Since 1 July heating degree days 0 0  
Cooling Degree Days 21 17  
Month to date cooling degree days 110 119  
Year to date cooling degree days 1115 951  
Since 1 June cooling degree days 634 554  
Growing Degree Days 35 (Base 50)    
Moisture  
Dew Point 59 °F    
Average Humidity 47    
Maximum Humidity 68    
Minimum Humidity 25    
Precipitation  
Precipitation 0.00 in 0.06 in 8.26 in (2015)
Month to date precipitation T 0.48  
Year to date precipitation 11.35 12.98  
Sea Level Pressure  
Sea Level Pressure 29.89 in    
Wind  
Wind Speed 11 mph (SE)    
Max Wind Speed 18 mph    
Max Gust Speed 24 mph    
Visibility 10 miles    
Events      
T = Trace of Precipitation, MM = Missing Value Source: NWS Daily Summary

Daily Weather History Graph

Daily Weather History Graph

Search for Another Location

Airport or City:

Trip Planner

Search our weather history database for the weather conditions in past years. The results will help you decide how hot, cold, wet, or windy it might be!

Date:

Astronomy

Jul. 07, 2013 Rise Set
Actual Time 6:38 AM CDT 8:49 PM CDT
Civil Twilight 6:09 AM CDT 9:17 PM CDT
Nautical Twilight 5:35 AM CDT 9:51 PM CDT
Astronomical Twilight 4:58 AM CDT 10:28 PM CDT
Moon 6:12 AM CDT (7/7) 8:18 PM CDT (7/7)
Length of Visible Light 15h 07m
Length of Day
14h 10m
Waning Crescent, 0% of the Moon is Illuminated
Jul 7
Waning Crescent
Jul 8
New
Jul 15
First Quarter
Jul 22
Full
Jul 29
Last Quarter

Hourly Weather History & Observations

Time (CDT) Temp. Heat Index Dew Point Humidity Pressure Visibility Wind Dir Wind Speed Gust Speed Precip Events Conditions
12:52 AM 80.1 °F 80.1 °F 55.0 °F 42% 29.86 in 10.0 mi SE 12.7 mph - N/A   Clear
1:52 AM 80.1 °F 80.4 °F 57.0 °F 45% 29.85 in 10.0 mi SE 13.8 mph - N/A   Clear
2:52 AM 78.1 °F - 57.9 °F 50% 29.86 in 10.0 mi SE 8.1 mph - N/A   Clear
3:52 AM 77.0 °F - 57.9 °F 52% 29.86 in 10.0 mi SE 8.1 mph - N/A   Clear
4:52 AM 75.9 °F - 60.1 °F 58% 29.86 in 10.0 mi SSE 11.5 mph 19.6 mph N/A   Clear
5:52 AM 75.0 °F - 61.0 °F 62% 29.87 in 10.0 mi SSE 11.5 mph - N/A   Clear
6:52 AM 73.9 °F - 62.1 °F 66% 29.90 in 10.0 mi South 6.9 mph - N/A   Clear
7:52 AM 75.0 °F - 63.0 °F 66% 29.92 in 10.0 mi South 5.8 mph - N/A   Clear
8:52 AM 80.1 °F 81.9 °F 64.9 °F 60% 29.93 in 10.0 mi South 11.5 mph - N/A   Clear
9:52 AM 82.9 °F 84.6 °F 64.9 °F 54% 29.95 in 10.0 mi South 10.4 mph - N/A   Clear
10:52 AM 87.1 °F 88.3 °F 64.0 °F 46% 29.94 in 10.0 mi South 10.4 mph - N/A   Clear
11:52 AM 90.0 °F 90.6 °F 63.0 °F 40% 29.93 in 10.0 mi South 9.2 mph - N/A   Clear
12:52 PM 93.0 °F 93.8 °F 62.1 °F 36% 29.92 in 10.0 mi South 9.2 mph 24.2 mph N/A   Partly Cloudy
1:52 PM 93.9 °F 93.6 °F 60.1 °F 32% 29.90 in 10.0 mi SSE 12.7 mph 19.6 mph N/A   Scattered Clouds
2:52 PM 93.0 °F 92.0 °F 57.9 °F 31% 29.88 in 10.0 mi SE 17.3 mph 23.0 mph N/A   Scattered Clouds
3:52 PM 95.0 °F 93.7 °F 57.0 °F 28% 29.87 in 10.0 mi SE 15.0 mph 21.9 mph N/A   Scattered Clouds
4:52 PM 97.0 °F 95.7 °F 57.0 °F 26% 29.86 in 10.0 mi ESE 13.8 mph - N/A   Scattered Clouds
5:52 PM 96.1 °F 94.1 °F 55.0 °F 25% 29.84 in 10.0 mi SE 15.0 mph 20.7 mph N/A   Partly Cloudy
6:52 PM 95.0 °F 93.0 °F 55.0 °F 26% 29.85 in 10.0 mi ESE 13.8 mph - N/A   Partly Cloudy
7:52 PM 93.0 °F 91.4 °F 55.9 °F 29% 29.86 in 10.0 mi ESE 16.1 mph - N/A   Clear
8:52 PM 90.0 °F 87.9 °F 55.0 °F 30% 29.87 in 10.0 mi ESE 10.4 mph - N/A   Clear
9:52 PM 87.1 °F 85.9 °F 57.0 °F 36% 29.89 in 10.0 mi ESE 9.2 mph - N/A   Clear
10:52 PM 84.9 °F 84.4 °F 59.0 °F 41% 29.90 in 10.0 mi ESE 6.9 mph - N/A   Clear
11:52 PM 82.9 °F 82.8 °F 59.0 °F 44% 29.91 in 10.0 mi ESE 5.8 mph - N/A   Clear